EHI
12 19 25 23 16 12 12 14 14 13 10 7 4 3 2 1 0 0 0 0 0 0 0 0 0 0 0 0 0 0 0 0 0 0 0 0 0 0 0 0 0 0 0
14 19 25 26 20 14 13 14 15 14 11 7 4 3 3 1 0 1 1 0 0 0 0 0 0 0 0 0 0 0 0 0 0 0 0 0 0 0 0 0 0 0 0
16 20 26 28 24 17 15 15 15 15 12 8 5 3 3 2 1 2 1 0 0 0 0 0 0 0 0 0 0 0 0 0 0 0 0 0 0 0 0 0 0 0 0
16 20 25 28 25 19 17 16 14 13 11 9 6 4 4 3 2 2 1 0 0 0 0 0 0 0 0 0 0 0 0 0 0 0 0 0 0 0 0 0 0 0 0
13 17 24 29 26 21 19 17 14 12 11 9 7 5 5 4 3 3 1 1 1 1 0 0 0 0 0 0 0 0 0 0 0 0 0 0 0 0 0 0 0 0 0
12 15 22 27 27 23 20 17 14 11 10 8 7 6 6 5 5 4 3 2 2 1 0 0 0 0 0 0 0 0 0 0 0 0 0 0 0 0 0 0 0 0 0
13 16 19 23 24 22 19 17 14 11 10 9 7 7 7 6 5 4 3 2 1 0 0 0 0 0 0 0 0 0 0 0 0 0 0 0 0 0 0 0 0 0 0
14 16 18 18 18 17 16 15 12 10 9 9 10 10 9 8 6 4 3 1 0 0 0 0 0 0 0 0 0 0 0 0 0 0 0 0 0 0 0 0 0 0 0
13 16 16 13 11 11 11 10 9 8 8 9 10 11 10 8 6 4 2 1 0 0 0 0 0 0 0 0 0 0 0 0 0 0 0 0 0 0 0 0 0 0 0
10 13 14 10 6 5 6 6 6 6 6 7 8 8 7 5 4 3 1 0 0 0 0 1 0 0 0 0 0 0 0 0 0 0 0 0 0 0 0 0 0 0 0
7 9 12 10 6 4 3 4 5 5 5 5 4 4 3 2 1 1 0 0 0 0 0 0 0 0 0 0 0 0 0 0 0 0 0 0 1 2 1 0 0 0 0
5 7 11 12 8 6 6 6 6 7 6 4 3 1 1 1 0 0 0 0 0 0 0 0 0 0 0 0 0 0 0 0 0 0 0 0 1 2 1 0 0 0 0
6 7 9 10 9 8 9 9 9 10 9 7 4 1 1 1 1 1 0 0 0 0 0 0 0 0 0 0 0 0 0 0 0 0 0 0 1 1 1 0 0 0 0
6 7 7 7 7 7 8 10 10 10 10 8 6 3 2 2 2 1 0 0 0 0 0 0 0 0 0 0 0 0 0 0 0 0 0 0 0 0 0 0 0 0 0
6 6 6 6 5 5 7 9 10 11 10 9 8 6 4 3 2 1 0 0 0 0 0 0 0 0 0 0 0 0 0 0 0 0 0 0 0 0 0 0 0 0 0
6 6 6 6 5 4 5 7 9 11 10 9 8 6 3 3 2 0 0 0 0 0 0 0 0 0 0 0 0 0 0 0 0 0 0 0 0 0 0 0 0 0 0
6 6 5 5 5 4 4 6 8 10 10 7 5 4 2 2 1 0 0 0 0 0 0 0 0 0 0 0 0 0 0 0 0 0 0 0 0 0 0 0 0 0 0
5 5 4 4 5 4 4 6 7 7 7 5 3 2 1 0 0 0 0 0 0 0 0 0 0 0 0 0 0 0 0 0 0 0 0 0 0 0 0 0 0 0 0
3 2 2 4 5 4 4 5 6 6 5 3 2 1 0 0 0 0 0 0 0 0 0 0 0 0 0 0 0 0 0 0 0 0 0 0 0 0 0 0 0 0 0
1 0 1 3 5 5 4 4 6 5 4 2 1 0 0 0 0 0 0 0 0 0 0 0 0 0 0 0 0 0 0 0 0 0 0 0 0 0 0 0 0 0 0
0 0 1 3 5 5 4 4 5 4 3 1 0 0 0 0 0 0 0 0 0 0 0 0 0 0 0 0 0 0 0 0 0 0 0 0 0 0 0 0 0 0 0
0 0 1 2 3 4 3 3 4 3 3 1 0 0 0 0 0 0 0 0 0 0 0 0 0 0 0 0 0 0 0 0 0 0 0 0 0 0 0 0 0 0 0
0 0 0 1 1 2 3 3 3 3 3 2 1 0 0 0 0 0 0 0 0 0 0 0 0 0 0 0 0 0 0 0 0 0 0 0 0 0 0 0 0 0 0
0 0 0 0 0 1 2 2 3 3 3 3 1 0 0 0 0 0 0 0 0 0 0 0 0 0 0 0 0 0 0 0 0 0 0 0 0 0 0 0 0 0 0
0 0 0 0 0 0 1 1 1 2 2 2 1 0 0 0 0 0 0 0 0 0 0 0 0 0 0 0 0 0 0 0 0 0 0 0 0 0 0 0 0 0 0
0 0 0 0 0 0 0 0 0 1 1 1 1 0 0 0 0 0 0 0 0 0 0 0 0 0 0 0 0 0 0 0 0 0 0 0 0 0 0 0 0 0 0
Wind_Speed
5 8 9 10 12 12 12 12 12 12 13 13 14 13 13 12 12 12 12 12 12 12 13 13 13 14 14 14 14 14 14 14 15 15 14 14 15 15 14 12 11 13 15
6 9 9 10 11 12 11 12 11 12 12 13 13 13 12 12 12 12 12 12 12 12 13 13 13 13 14 14 14 14 14 14 14 12 11 12 13 14 14 13 12 11 14
6 9 10 9 10 11 11 11 11 12 12 12 13 12 12 12 12 12 11 11 12 12 13 13 13 14 14 14 14 14 14 13 12 8 7 10 12 14 14 13 14 14 14
6 8 8 9 10 10 10 11 11 12 12 12 12 12 12 12 11 11 11 11 12 12 13 13 13 14 13 13 13 13 13 12 9 5 7 9 10 13 13 13 13 14 14
6 7 8 8 9 9 9 10 10 11 11 11 11 11 11 11 11 11 11 11 12 12 13 13 13 13 13 13 13 13 12 10 6 7 9 9 9 12 12 13 13 13 13
6 7 8 7 8 8 9 9 10 10 10 10 10 10 11 11 11 11 11 11 11 12 12 12 12 12 12 12 12 12 10 7 6 8 8 8 8 11 12 12 12 12 12
6 6 7 7 6 7 8 9 9 9 10 10 9 10 10 11 11 11 11 11 11 12 12 12 12 12 11 11 11 11 9 4 6 7 7 7 9 11 11 11 11 12 12
6 6 7 7 6 5 7 7 8 8 9 9 9 9 9 10 11 11 11 11 11 11 11 11 11 11 11 11 11 10 7 3 6 7 7 8 9 10 11 11 11 11 11
5 5 5 6 5 5 5 7 7 7 8 8 8 8 7 7 9 10 10 10 10 10 10 11 10 10 10 10 10 9 6 3 5 5 6 6 8 10 10 10 10 10 10
4 4 4 4 4 5 5 6 6 6 7 7 8 7 7 7 7 9 9 8 8 9 10 10 10 10 10 10 9 8 5 2 5 6 5 7 8 9 9 10 9 10 10
4 3 3 3 3 3 5 5 5 6 6 7 7 7 6 6 6 6 7 7 8 9 9 10 11 10 9 9 8 6 3 3 5 4 5 7 7 8 9 9 9 9 9
3 3 2 2 2 3 3 4 4 4 5 5 5 6 5 4 4 5 7 7 8 8 9 9 10 9 6 5 6 3 2 4 3 3 5 6 7 8 8 8 8 9 9
2 3 3 1 1 2 2 3 2 2 3 4 5 5 4 4 4 4 4 5 6 7 6 7 7 5 4 4 3 3 3 2 2 3 5 5 6 7 8 7 8 8 8
3 3 3 3 1 1 2 2 2 2 2 3 4 5 4 3 3 3 3 4 4 3 4 4 3 5 5 5 4 4 4 2 2 2 4 5 4 6 7 7 7 7 7
3 3 3 3 2 1 1 1 2 2 3 3 3 4 4 3 4 4 3 3 4 3 4 4 4 5 5 4 4 4 4 3 2 2 3 5 4 4 5 6 6 6 6
3 3 3 3 3 2 0 1 2 2 2 3 3 4 5 3 3 3 3 3 3 3 3 3 5 4 4 4 4 4 3 3 2 2 2 4 4 4 3 4 5 5 6
4 4 3 3 2 2 1 1 1 2 2 2 3 3 4 4 4 4 3 3 3 3 4 3 4 4 3 3 4 3 2 2 2 2 2 2 3 3 3 3 4 4 5
5 4 3 3 3 3 2 1 1 2 2 2 3 3 4 5 5 4 4 3 3 3 4 4 4 4 4 3 3 3 2 2 2 2 2 2 2 2 3 3 3 3 4
5 4 4 3 3 3 3 1 1 1 1 2 3 3 3 5 5 4 4 4 4 4 4 4 3 4 4 4 3 2 2 2 2 2 3 2 2 1 2 4 3 3 3
6 4 3 3 4 3 2 1 0 0 0 1 2 2 3 4 5 5 4 5 5 4 4 4 4 3 3 3 3 2 2 2 2 2 3 2 2 2 2 2 3 3 2
8 7 5 3 3 3 2 1 1 1 1 1 1 2 3 4 4 5 4 5 5 5 5 6 5 5 3 3 3 2 2 2 3 3 3 3 3 3 3 3 2 2 2
8 8 7 5 4 3 3 2 2 2 2 1 1 1 2 3 4 5 6 5 6 5 6 6 6 4 3 4 3 3 3 3 3 3 3 3 3 3 4 4 3 3 2
10 9 7 7 5 4 4 2 1 1 1 1 2 2 2 3 4 4 6 6 6 6 5 7 7 7 5 4 4 4 3 3 3 3 4 3 3 3 4 4 4 4 3
9 9 8 7 6 5 3 2 2 1 2 2 2 2 2 2 3 3 4 6 6 5 6 6 7 6 7 5 4 4 3 1 3 3 4 4 4 4 4 3 4 4 4
9 8 8 7 6 5 4 3 2 2 2 2 2 2 2 2 2 3 3 4 5 5 6 6 6 7 6 6 5 4 4 3 4 3 3 4 4 4 4 4 4 4 5
8 8 8 7 6 6 5 4 3 2 2 2 2 2 2 2 2 2 3 4 5 5 6 7 7 8 7 7 6 5 5 4 5 4 3 4 4 4 4 4 4 4 4
Wind_Direction
169 165 156 154 149 144 140 137 132 128 128 127 125 122 120 117 114 111 110 110 109 108 105 104 102 99 96 94 92 89 88 87 86 85 81 81 83 84 83 81 84 81 77
161 164 152 150 150 145 141 137 133 130 130 129 127 124 123 120 118 115 111 109 111 111 108 107 104 102 101 98 95 91 91 90 89 87 89 86 80 82 81 73 69 81 80
149 156 154 144 143 142 141 138 136 134 132 131 129 128 126 123 121 117 113 110 108 107 106 106 103 102 102 99 96 94 93 92 91 91 101 95 88 84 84 82 81 84 82
145 151 149 139 139 136 136 139 139 137 136 134 133 133 130 127 123 119 114 110 108 106 106 105 103 101 101 102 100 97 95 92 89 96 95 90 90 87 87 86 85 85 84
135 142 134 129 135 135 135 135 138 140 139 137 136 135 134 132 128 122 116 110 109 107 106 106 105 103 101 101 100 100 97 94 93 97 91 89 88 88 88 87 85 84 83
136 135 125 117 124 131 132 133 135 135 136 137 138 138 137 135 131 125 118 112 111 110 110 109 109 107 105 103 101 100 100 103 118 96 93 92 90 91 90 89 88 86 85
138 135 129 109 115 121 126 129 132 134 134 132 136 141 140 137 133 127 120 117 117 116 115 114 112 111 109 106 102 99 95 85 99 96 95 92 90 93 93 92 90 88 86
136 133 131 116 104 114 126 123 128 129 131 134 130 130 133 135 133 129 124 122 123 123 121 120 118 115 110 108 105 100 92 99 104 99 94 91 92 96 96 96 93 92 89
121 125 128 139 134 115 116 122 120 121 121 122 124 122 118 120 130 129 126 127 127 127 124 122 121 118 112 107 102 95 84 61 101 96 95 90 93 99 99 99 96 93 91
104 113 124 132 142 150 143 117 116 112 114 116 112 106 105 114 124 127 129 125 128 128 125 123 121 116 110 107 101 94 96 131 103 102 95 93 96 100 101 100 97 95 94
67 73 115 129 133 144 153 132 125 120 114 122 120 110 125 141 140 139 128 119 126 127 125 124 121 116 111 105 100 101 137 121 108 94 91 94 105 107 104 100 100 98 97
40 40 52 103 136 144 146 146 150 151 150 153 150 147 151 144 132 126 113 114 122 123 124 125 125 128 136 129 119 147 131 113 106 99 93 100 111 113 109 106 105 102 98
30 24 12 26 116 140 149 152 155 158 162 162 158 156 152 140 132 132 132 129 135 141 139 137 146 150 143 132 138 137 117 113 107 101 92 91 112 122 121 119 113 108 103
22 13 8 360 9 145 155 162 161 163 163 162 165 160 153 146 148 145 150 150 152 155 152 154 155 148 142 143 144 133 129 124 110 104 89 74 98 124 130 130 123 117 113
10 359 354 352 3 358 160 170 171 174 171 163 168 167 161 159 158 155 157 157 155 152 159 159 157 152 149 145 142 141 135 127 123 117 107 79 78 108 131 134 132 127 124
350 341 338 344 353 344 297 185 179 178 174 171 168 176 171 168 165 164 162 161 159 161 160 165 161 157 154 153 151 150 143 137 132 126 117 110 83 83 110 132 135 131 130
336 328 330 326 339 338 316 238 195 187 185 180 180 186 181 173 172 170 168 167 162 165 164 162 158 155 152 153 157 155 155 151 156 155 147 143 132 99 89 124 135 138 139
337 332 328 325 329 329 311 280 234 201 196 191 187 190 192 183 178 174 173 171 167 168 170 164 166 163 162 166 164 159 159 160 177 182 179 176 162 152 123 106 114 125 137
337 331 326 328 329 321 311 298 284 225 214 205 191 191 195 193 188 182 178 173 172 172 172 168 175 177 172 171 167 165 169 177 185 195 197 192 185 172 148 119 114 96 113
345 339 330 332 335 327 310 288 318 226 260 239 206 205 195 198 193 187 182 179 176 176 176 177 178 176 176 167 161 165 178 187 194 197 203 200 192 185 177 166 158 132 111
2 356 342 339 338 335 325 292 257 254 253 251 231 239 210 200 200 192 184 184 187 187 187 184 176 174 173 169 168 170 177 192 204 201 205 208 198 196 198 197 195 187 166
2 356 351 342 332 328 322 293 261 255 247 260 280 253 239 209 205 203 194 191 192 192 190 188 180 182 181 193 193 187 192 190 198 206 200 205 210 206 207 208 203 205 204
1 354 346 344 337 326 319 303 295 264 258 259 265 262 261 239 216 216 206 202 198 196 195 195 191 191 190 202 212 211 205 205 176 190 203 207 209 218 218 211 210 211 215
354 350 345 342 344 334 321 304 269 243 243 256 258 261 253 238 223 226 221 209 204 202 202 202 201 200 197 200 205 230 248 215 200 184 197 208 212 222 227 222 214 213 214
351 350 348 344 347 340 327 303 271 268 267 258 250 255 256 240 226 228 233 221 215 211 209 208 208 208 208 210 206 203 207 212 221 214 205 199 206 215 222 227 223 221 216
351 352 351 348 347 338 332 323 298 284 273 268 256 245 252 253 246 254 250 232 227 221 213 211 209 212 213 216 216 214 214 211 208 214 218 207 211 207 214 224 224 223 220